Miscellaneous Local Product
Issued by NWS Hastings, NE

Home | Current Version | Previous Version | Graphics & Text | Print | Product List | Glossary On
Versions: 1 2 3 4 5 6 7 8 9 10 11 12 13 14 15 16 17 18 19 20 21 22 23 24 25 26 27 28 29 30 31 32 33 34 35 36 37 38 39 40 41 42 43 44 45 46 47 48 49 50
000
AXUS43 KGID 170402
MISGRI

GID CWA HOURLY WEATHER ROUNDUP
NATIONAL WEATHER SERVICE HASTINGS NE
1000 PM CST SAT DEC 16 2017

NOTE: "FAIR" INDICATES FEW OR NO CLOUDS BELOW 12,000 FEET WITH NO
SIGNIFICANT WEATHER AND/OR OBSTRUCTIONS TO VISIBILITY.

...SOUTH CENTRAL NEBRASKA...

CITY           SKY/WX    TMP DP  RH WIND       PRES   REMARKS
GRAND ISLAND   CLOUDY    32  31  96 N13       29.96S WCI  22
KEARNEY        CLOUDY    32  29  88 N13       29.96R WCI  22
HASTINGS       CLOUDY    34  29  82 NE14      29.96R WCI  25
ORD            CLOUDY    37  34  89 N10       29.99R WCI  30
YORK           CLOUDY    32  32 100 N12       29.94F WCI  23
AURORA         CLOUDY    33  30  90 N13       29.95R WCI  24
LEXINGTON      CLOUDY    35  31  84 NE12      29.95S WCI  27
HOLDREGE       CLOUDY    33  30  90 NE12      29.95R WCI  24
HEBRON         MOCLDY    36  24  61 CALM      29.93R

...NEBRASKA PANHANDLE...

CITY           SKY/WX    TMP DP  RH WIND       PRES   REMARKS
CHADRON        CLOUDY    31  26  82 NE5       30.04S WCI  26
ALLIANCE       CLOUDY    31  28  89 NE9       29.99R WCI  23
SCOTTSBLUFF    CLOUDY    34  27  75 E12       29.99R WCI  25
SIDNEY         CLOUDY    32  28  85 NE15      29.97R WCI  22

...WESTERN AND NORTH CENTRAL NEBRASKA...

CITY           SKY/WX    TMP DP  RH WIND       PRES   REMARKS
VALENTINE      CLOUDY    37  32  82 NE10      30.04R WCI  30
AINSWORTH      CLOUDY    36  34  91 N7        30.02S WCI  31
ONEILL         CLOUDY    35  34  97 N8        30.02R WCI  29
BROKEN BOW     CLOUDY    39  33  79 N16G24    29.97S WCI  30
IMPERIAL       CLOUDY    36  33  89 N15       29.95S WCI  27
NORTH PLATTE   CLOUDY    38  33  82 NE18      29.96S WCI  28
MCCOOK         CLEAR     32  28  85 NE16      29.93R WCI  21

...EASTERN NEBRASKA...

CITY           SKY/WX    TMP DP  RH WIND       PRES   REMARKS
NORFOLK        CLEAR     35  30  82 NE9       29.99R WCI  28
SO SIOUX CITY  PTCLDY    35  29  78 NE9       30.02R WCI  28
TEKAMAH        CLOUDY    31  23  72 N12       30.00R WCI  22
COLUMBUS       PTCLDY    34  29  82 N13       29.97S WCI  25
ALBION         PTCLDY    35  32  89 N6        30.00R WCI  30
OMAHA EPPLEY   CLOUDY    35  24  64 N7        29.97R WCI  29
OFFUTT AFB     CLOUDY    39  26  58 NE12      29.95R WCI  32
MILLARD        CLOUDY    42  29  61 NE7       29.97R
LINCOLN        CLOUDY    34  26  72 N12       29.96R WCI  25
NEBRASKA CITY  CLOUDY    38  25  59 N3        29.93S
BEATRICE       CLOUDY    37  24  61 NE5       29.92R WCI  33
FALLS CITY     PTCLDY    40  25  55 S6        29.93R

...NORTHERN KANSAS...

CITY           SKY/WX    TMP DP  RH WIND       PRES   REMARKS
GOODLAND       CLOUDY    29  25  85 N14       29.88R WCI  18
HILL CITY      PTCLDY    38  23  55 NE14      29.87R WCI  30
NORTON         CLEAR     34  25  69 N10       29.89S WCI  26
PHILLIPSBURG   CLEAR     39  28  65 N15       29.89S WCI  31
SMITH CENTER   PTCLDY    37  21  52 NE12      29.89R WCI  30
HAYS           CLOUDY    37  22  54 NE3       29.84R
RUSSELL        CLOUDY    47  28  47 S10       29.83R
CONCORDIA      PTCLDY    36  25  64 CALM      29.88R
SALINA         CLOUDY    49  29  46 S9        29.89R
TOPEKA         CLOUDY    42  27  55 SE3       29.95R



USA.gov is the U.S. government's official web portal to all federal, state and local government web resources and services.